Location: Katowice
(50.2611°N, 19.0242°E)
Time: 22:17:58
(UTC+02:00)

Explorer 7 - Pass Details

Date: 27 August 2019
Orbit: 485 x 680 km, 50.3° (Epoch: 22 October)

Event Time Altitude Azimuth Distance (km) Brightness Sun altitude
Rises 15:15:15 0° 281° (W) 2,879 10.9 39.3°
Reaches altitude 10° 15:18:43 10° 254° (WSW) 1,920 10.6 38.9°
Maximum altitude 15:20:45 13° 226° (SW) 1,694 10.7 38.7°
Drops below altitude 10° 15:22:44 10° 198° (SSW) 1,855 10.4 38.4°
Sets 15:25:58 0° 171° (S) 2,696 10.6 38.0°
